Time,TemperatureF,DewpointF,PressureIn,WindDirection,WindDirectionDegrees,WindSpeedMPH,WindSpeedGustMPH,Humidity,HourlyPrecipIn,Conditions,Clouds,dailyrainin,SolarRadiationWatts/m^2,SoftwareType,DateUTC
2013-08-23 00:00:00,63.4,62.2,30.00,NNW,334,0.0,0.0,96,0.00,,SKC,0.00,0.00,VWS V14.01,2013-08-23 05:00:00,
2013-08-23 00:01:00,63.4,62.2,30.00,NNW,334,0.0,0.0,96,0.00,,SKC,0.00,0.00,VWS V14.01,2013-08-23 05:01:00,
2013-08-23 00:06:00,63.2,62.0,30.00,NNW,334,0.0,0.0,96,0.00,,SKC,0.00,0.00,VWS V14.01,2013-08-23 05:06:00,
2013-08-23 00:11:00,63.2,62.0,30.00,NNW,334,0.0,0.0,96,0.00,,SKC,0.00,0.00,VWS V14.01,2013-08-23 05:11:00,
2013-08-23 00:16:00,63.0,61.8,30.00,NNW,334,0.0,0.0,96,0.00,,SKC,0.00,0.00,VWS V14.01,2013-08-23 05:16:00,
2013-08-23 00:21:00,62.8,61.7,30.00,NNW,334,0.0,0.0,96,0.00,,SKC,0.00,0.00,VWS V14.01,2013-08-23 05:21:00,
2013-08-23 00:26:00,62.7,61.5,30.00,NNW,334,0.0,0.0,96,0.00,,SKC,0.00,0.00,VWS V14.01,2013-08-23 05:26:00,
2013-08-23 00:30:00,62.6,61.5,30.00,NNW,334,0.0,0.0,96,0.00,,SKC,0.00,0.00,VWS V14.01,2013-08-23 05:30:00,
2013-08-23 00:31:00,62.5,61.3,30.00,NNW,334,0.0,0.0,96,0.00,,SKC,0.00,0.00,VWS V14.01,2013-08-23 05:31:00,
2013-08-23 00:36:00,62.7,61.8,30.00,NNW,334,0.0,0.0,97,0.00,,SKC,0.00,0.00,VWS V14.01,2013-08-23 05:36:00,
2013-08-23 00:41:00,62.7,61.8,30.00,NNW,334,0.0,0.0,97,0.00,,SKC,0.00,0.00,VWS V14.01,2013-08-23 05:41:00,
2013-08-23 00:46:00,62.6,61.7,30.00,NNW,334,0.0,0.0,97,0.00,,SKC,0.00,0.00,VWS V14.01,2013-08-23 05:46:00,
2013-08-23 00:51:00,62.4,61.2,30.00,NNW,334,0.0,0.0,96,0.00,,SKC,0.00,0.00,VWS V14.01,2013-08-23 05:51:00,
2013-08-23 00:56:00,62.3,61.2,30.00,NNW,334,0.0,0.0,96,0.00,,SKC,0.00,0.00,VWS V14.01,2013-08-23 05:56:00,
2013-08-23 01:00:00,62.3,61.2,30.00,NNW,334,0.0,0.0,96,0.00,,SKC,0.00,0.00,VWS V14.01,2013-08-23 06:00:00,
2013-08-23 01:01:00,62.4,61.5,30.00,NNW,334,0.0,0.0,97,0.00,,SKC,0.00,0.00,VWS V14.01,2013-08-23 06:01:00,
2013-08-23 01:06:00,62.6,61.7,30.00,NNW,334,0.0,2.0,97,0.00,,SKC,0.00,0.00,VWS V14.01,2013-08-23 06:06:00,
2013-08-23 01:11:00,62.8,61.9,30.00,NNW,334,0.0,2.0,97,0.00,,SKC,0.00,0.00,VWS V14.01,2013-08-23 06:11:00,
2013-08-23 01:16:00,62.8,61.9,30.00,NNW,334,0.0,2.0,97,0.00,,SKC,0.00,0.00,VWS V14.01,2013-08-23 06:16:00,
2013-08-23 01:21:00,62.7,61.8,30.00,NNW,334,0.0,2.0,97,0.00,,SKC,0.00,0.00,VWS V14.01,2013-08-23 06:21:00,
2013-08-23 01:27:00,62.7,61.8,30.00,NNW,334,0.0,2.0,97,0.00,,SKC,0.00,0.00,VWS V14.01,2013-08-23 06:27:00,
2013-08-23 01:30:00,62.6,61.7,30.00,NNW,334,0.0,2.0,97,0.00,,SKC,0.00,0.00,VWS V14.01,2013-08-23 06:30:00,
2013-08-23 01:32:00,62.6,61.7,30.00,NNW,334,0.0,0.0,97,0.00,,SKC,0.00,0.00,VWS V14.01,2013-08-23 06:32:00,
2013-08-23 01:37:00,62.6,61.7,30.00,NNW,334,0.0,0.0,97,0.00,,SKC,0.00,0.00,VWS V14.01,2013-08-23 06:37:00,
2013-08-23 01:42:00,62.5,61.6,30.00,NNW,334,0.0,0.0,97,0.00,,SKC,0.00,0.00,VWS V14.01,2013-08-23 06:42:00,
2013-08-23 01:47:00,62.5,61.6,30.00,NNW,334,0.0,0.0,97,0.00,,SKC,0.00,0.00,VWS V14.01,2013-08-23 06:47:00,
2013-08-23 01:52:00,62.3,61.4,30.00,NNW,334,0.0,0.0,97,0.00,,SKC,0.00,0.00,VWS V14.01,2013-08-23 06:52:00,
2013-08-23 01:57:00,62.2,61.3,30.00,NNW,334,0.0,0.0,97,0.00,,SKC,0.00,0.00,VWS V14.01,2013-08-23 06:57:00,
2013-08-23 02:00:00,62.2,61.3,30.00,NNW,334,0.0,0.0,97,0.00,,SKC,0.00,0.00,VWS V14.01,2013-08-23 07:00:00,
2013-08-23 02:02:00,62.2,61.3,30.00,NNW,334,0.0,1.0,97,0.00,,SKC,0.00,0.00,VWS V14.01,2013-08-23 07:02:00,
2013-08-23 02:07:00,62.1,61.2,30.00,NNW,334,0.0,1.0,97,0.00,,SKC,0.00,0.00,VWS V14.01,2013-08-23 07:07:00,
2013-08-23 02:12:00,62.1,61.2,30.00,NNW,334,0.0,1.0,97,0.00,,SKC,0.00,0.00,VWS V14.01,2013-08-23 07:12:00,
2013-08-23 02:17:00,62.0,61.1,30.00,NNW,334,0.0,1.0,97,0.00,,SKC,0.00,0.00,VWS V14.01,2013-08-23 07:17:00,
2013-08-23 02:22:00,62.0,61.1,30.00,NNW,334,0.0,1.0,97,0.00,,SKC,0.00,0.00,VWS V14.01,2013-08-23 07:22:00,
2013-08-23 02:27:00,61.9,61.0,30.00,NNW,334,0.0,1.0,97,0.00,,SKC,0.00,0.00,VWS V14.01,2013-08-23 07:27:00,
2013-08-23 02:30:00,61.9,61.0,30.00,NNW,334,0.0,1.0,97,0.00,,SKC,0.00,0.00,VWS V14.01,2013-08-23 07:30:00,
2013-08-23 02:32:00,61.8,60.9,30.00,NNW,334,0.0,0.0,97,0.00,,SKC,0.00,0.00,VWS V14.01,2013-08-23 07:32:00,
2013-08-23 02:37:00,61.8,60.7,30.00,NNW,334,0.0,1.0,96,0.00,,SKC,0.00,0.00,VWS V14.01,2013-08-23 07:37:00,
2013-08-23 02:42:00,61.6,60.5,30.00,NNW,334,0.0,1.0,96,0.00,,SKC,0.00,0.00,VWS V14.01,2013-08-23 07:42:00,
2013-08-23 02:47:00,61.6,60.5,30.00,NNW,334,0.0,1.0,96,0.00,,SKC,0.00,0.00,VWS V14.01,2013-08-23 07:47:00,
2013-08-23 02:52:00,61.5,60.6,29.99,NNW,334,0.0,1.0,97,0.00,,SKC,0.00,0.00,VWS V14.01,2013-08-23 07:52:00,
2013-08-23 02:57:00,61.4,60.5,29.99,NNW,334,0.0,1.0,97,0.00,,SKC,0.00,0.00,VWS V14.01,2013-08-23 07:57:00,
2013-08-23 03:00:00,61.4,60.5,29.99,NNW,334,0.0,1.0,97,0.00,,SKC,0.00,0.00,VWS V14.01,2013-08-23 08:00:00,
2013-08-23 03:02:00,61.3,60.4,30.00,NNW,334,0.0,0.0,97,0.00,,SKC,0.00,0.00,VWS V14.01,2013-08-23 08:02:00,
2013-08-23 03:07:00,61.3,60.4,29.99,NNW,334,0.0,1.0,97,0.00,,SKC,0.00,0.00,VWS V14.01,2013-08-23 08:07:00,
2013-08-23 03:12:00,61.3,60.4,29.99,NNW,334,0.0,1.0,97,0.00,,SKC,0.00,0.00,VWS V14.01,2013-08-23 08:12:00,
2013-08-23 03:17:00,61.2,60.3,29.99,NNW,334,0.0,1.0,97,0.00,,SKC,0.00,0.00,VWS V14.01,2013-08-23 08:17:00,
2013-08-23 03:22:00,61.1,60.2,29.99,NNW,334,0.0,1.0,97,0.00,,SKC,0.00,0.00,VWS V14.01,2013-08-23 08:22:00,
2013-08-23 03:27:00,61.1,60.0,29.99,NNW,334,0.0,1.0,96,0.00,,SKC,0.00,0.00,VWS V14.01,2013-08-23 08:27:00,
2013-08-23 03:30:00,61.0,59.8,29.99,NNW,334,0.0,1.0,96,0.00,,SKC,0.00,0.00,VWS V14.01,2013-08-23 08:30:00,
2013-08-23 03:32:00,60.9,59.8,29.99,NNW,334,0.0,0.0,96,0.00,,SKC,0.00,0.00,VWS V14.01,2013-08-23 08:32:00,
2013-08-23 03:37:00,60.8,60.0,30.00,NNW,334,0.0,0.0,97,0.00,,SKC,0.00,0.00,VWS V14.01,2013-08-23 08:37:00,
2013-08-23 03:42:00,60.6,59.5,30.00,NNW,334,0.0,0.0,96,0.00,,SKC,0.00,0.00,VWS V14.01,2013-08-23 08:42:00,
2013-08-23 03:47:00,60.4,59.3,30.00,NNW,334,0.0,0.0,96,0.00,,SKC,0.00,0.00,VWS V14.01,2013-08-23 08:47:00,
2013-08-23 03:52:00,60.3,59.2,30.00,NNW,334,0.0,0.0,96,0.00,,SKC,0.00,0.00,VWS V14.01,2013-08-23 08:52:00,
2013-08-23 03:57:00,60.2,59.3,30.00,NNW,334,0.0,0.0,97,0.00,,SKC,0.00,0.00,VWS V14.01,2013-08-23 08:57:00,
2013-08-23 04:00:00,60.2,59.3,30.00,NNW,334,0.0,0.0,97,0.00,,SKC,0.00,0.00,VWS V14.01,2013-08-23 09:00:00,
2013-08-23 04:02:00,60.2,59.3,30.00,NNW,334,0.0,0.0,97,0.00,,SKC,0.00,0.00,VWS V14.01,2013-08-23 09:02:00,
2013-08-23 04:07:00,60.2,59.3,30.00,NNW,334,0.0,0.0,97,0.00,,SKC,0.00,0.00,VWS V14.01,2013-08-23 09:07:00,
2013-08-23 04:12:00,60.1,59.2,30.00,NNW,334,0.0,0.0,97,0.00,,SKC,0.00,0.00,VWS V14.01,2013-08-23 09:12:00,
2013-08-23 04:17:00,60.0,59.2,30.00,NNW,334,0.0,0.0,97,0.00,,SKC,0.00,0.00,VWS V14.01,2013-08-23 09:17:00,
2013-08-23 04:22:00,59.9,59.0,30.00,NNW,334,0.0,0.0,97,0.00,,SKC,0.00,0.00,VWS V14.01,2013-08-23 09:22:00,
2013-08-23 04:27:00,59.9,59.0,30.00,NNW,334,0.0,0.0,97,0.00,,SKC,0.00,0.00,VWS V14.01,2013-08-23 09:27:00,
2013-08-23 04:30:00,60.0,59.2,30.00,NNW,334,0.0,0.0,97,0.00,,SKC,0.00,0.00,VWS V14.01,2013-08-23 09:30:00,
2013-08-23 04:33:00,60.1,59.2,30.00,NNW,334,0.0,0.0,97,0.00,,SKC,0.00,0.00,VWS V14.01,2013-08-23 09:33:00,
2013-08-23 04:38:00,60.2,59.3,30.01,NNW,334,0.0,1.0,97,0.00,,SKC,0.00,0.00,VWS V14.01,2013-08-23 09:38:00,
2013-08-23 04:43:00,60.3,59.5,30.00,NNW,334,0.0,1.0,97,0.00,,SKC,0.00,0.00,VWS V14.01,2013-08-23 09:43:00,
2013-08-23 04:48:00,60.3,59.5,30.01,NNW,334,0.0,1.0,97,0.00,,SKC,0.00,0.00,VWS V14.01,2013-08-23 09:48:00,
2013-08-23 04:53:00,60.3,59.5,30.01,NNW,334,0.0,1.0,97,0.00,,SKC,0.00,0.00,VWS V14.01,2013-08-23 09:53:00,
2013-08-23 04:58:00,60.4,59.5,30.01,NNW,334,0.0,1.0,97,0.00,,SKC,0.00,0.00,VWS V14.01,2013-08-23 09:58:00,
2013-08-23 05:00:00,60.5,59.7,30.01,NNW,334,0.0,1.0,97,0.00,,SKC,0.00,0.00,VWS V14.01,2013-08-23 10:00:00,
2013-08-23 05:03:00,60.5,59.7,30.01,NNW,334,0.0,1.0,97,0.00,,SKC,0.00,0.00,VWS V14.01,2013-08-23 10:03:00,
2013-08-23 05:08:00,60.5,59.7,30.01,NNW,334,0.0,1.0,97,0.00,,SKC,0.00,0.00,VWS V14.01,2013-08-23 10:08:00,
2013-08-23 05:13:00,60.4,59.5,30.01,NNW,334,0.0,1.0,97,0.00,,SKC,0.00,0.00,VWS V14.01,2013-08-23 10:13:00,
2013-08-23 05:18:00,60.4,59.5,30.01,NNW,334,0.0,1.0,97,0.00,,SKC,0.00,0.00,VWS V14.01,2013-08-23 10:18:00,
2013-08-23 05:23:00,60.3,59.5,30.01,NNW,334,0.0,1.0,97,0.00,,SKC,0.00,0.00,VWS V14.01,2013-08-23 10:23:00,
2013-08-23 05:28:00,60.2,59.3,30.02,NNW,334,0.0,1.0,97,0.00,,SKC,0.00,0.00,VWS V14.01,2013-08-23 10:28:00,
2013-08-23 05:30:00,60.2,59.3,30.01,NNW,334,0.0,1.0,97,0.00,,SKC,0.00,0.00,VWS V14.01,2013-08-23 10:30:00,
2013-08-23 05:33:00,60.2,59.3,30.02,NNW,334,0.0,0.0,97,0.00,,SKC,0.00,0.00,VWS V14.01,2013-08-23 10:33:00,
2013-08-23 05:38:00,60.0,59.2,30.02,NNW,334,0.0,0.0,97,0.00,,SKC,0.00,0.00,VWS V14.01,2013-08-23 10:38:00,
2013-08-23 05:43:00,59.9,59.0,30.02,NNW,334,0.0,0.0,97,0.00,,SKC,0.00,0.00,VWS V14.01,2013-08-23 10:43:00,
2013-08-23 05:48:00,59.8,59.0,30.02,NNW,334,0.0,0.0,97,0.00,,SKC,0.00,0.00,VWS V14.01,2013-08-23 10:48:00,
2013-08-23 05:53:00,59.6,58.8,30.02,NNW,334,0.0,0.0,97,0.00,,SKC,0.00,0.00,VWS V14.01,2013-08-23 10:53:00,
2013-08-23 05:58:00,59.6,58.8,30.03,NNW,334,0.0,0.0,97,0.00,,SKC,0.00,0.00,VWS V14.01,2013-08-23 10:58:00,
2013-08-23 06:00:00,59.6,58.8,30.03,NNW,334,0.0,0.0,97,0.00,,SKC,0.00,0.00,VWS V14.01,2013-08-23 11:00:00,
2013-08-23 06:03:00,59.6,58.8,30.03,NNW,334,0.0,0.0,97,0.00,,SKC,0.00,0.00,VWS V14.01,2013-08-23 11:03:00,
2013-08-23 06:08:00,59.6,58.8,30.03,NNW,334,0.0,0.0,97,0.00,,SKC,0.00,0.00,VWS V14.01,2013-08-23 11:08:00,
2013-08-23 06:13:00,59.6,58.8,30.03,NNW,334,0.0,0.0,97,0.00,,SKC,0.00,0.00,VWS V14.01,2013-08-23 11:13:00,
2013-08-23 06:18:00,59.5,58.7,30.03,NNW,334,0.0,0.0,97,0.00,,SKC,0.00,7.00,VWS V14.01,2013-08-23 11:18:00,
2013-08-23 06:23:00,59.4,58.5,30.03,NNW,334,0.0,0.0,97,0.00,,SKC,0.00,9.00,VWS V14.01,2013-08-23 11:23:00,
2013-08-23 06:28:00,59.3,58.5,30.03,NNW,334,0.0,0.0,97,0.00,,SKC,0.00,12.00,VWS V14.01,2013-08-23 11:28:00,
2013-08-23 06:30:00,59.4,58.5,30.03,NNW,334,0.0,0.0,97,0.00,,SKC,0.00,12.00,VWS V14.01,2013-08-23 11:30:00,
2013-08-23 06:33:00,59.3,58.5,30.03,NNW,334,0.0,0.0,97,0.00,,SKC,0.00,16.00,VWS V14.01,2013-08-23 11:33:00,
2013-08-23 06:38:00,59.3,58.5,30.03,NNW,334,0.0,0.0,97,0.00,,SKC,0.00,18.00,VWS V14.01,2013-08-23 11:38:00,
2013-08-23 06:43:00,59.3,58.5,30.03,NNW,334,0.0,0.0,97,0.00,,SKC,0.00,21.00,VWS V14.01,2013-08-23 11:43:00,
2013-08-23 06:48:00,59.5,58.9,30.04,NNW,334,0.0,0.0,98,0.00,,SKC,0.00,23.00,VWS V14.01,2013-08-23 11:48:00,
2013-08-23 06:53:00,59.6,59.0,30.04,NNW,334,0.0,0.0,98,0.00,,SKC,0.00,25.00,VWS V14.01,2013-08-23 11:53:00,
2013-08-23 06:58:00,59.8,59.2,30.04,NNW,334,0.0,0.0,98,0.00,,SKC,0.00,26.00,VWS V14.01,2013-08-23 11:58:00,
2013-08-23 07:00:00,59.8,59.2,30.04,NNW,334,0.0,0.0,98,0.00,,SKC,0.00,26.00,VWS V14.01,2013-08-23 12:00:00,
2013-08-23 07:03:00,59.9,59.3,30.04,NNW,334,0.0,0.0,98,0.00,,SKC,0.00,28.00,VWS V14.01,2013-08-23 12:03:00,
2013-08-23 07:08:00,60.0,59.4,30.04,NNW,334,0.0,0.0,98,0.00,,SKC,0.00,30.00,VWS V14.01,2013-08-23 12:08:00,
2013-08-23 07:13:00,60.1,59.5,30.04,NNW,334,0.0,0.0,98,0.00,,SKC,0.00,32.00,VWS V14.01,2013-08-23 12:13:00,
2013-08-23 07:18:00,60.3,59.7,30.04,NNW,334,0.0,0.0,98,0.00,,SKC,0.00,33.00,VWS V14.01,2013-08-23 12:18:00,
2013-08-23 07:23:00,60.7,60.1,30.05,NNW,334,0.0,0.0,98,0.00,,SKC,0.00,33.00,VWS V14.01,2013-08-23 12:23:00,
2013-08-23 07:28:00,61.3,60.7,30.05,NNW,334,0.0,0.0,98,0.00,,SKC,0.00,35.00,VWS V14.01,2013-08-23 12:28:00,
2013-08-23 07:30:00,61.3,60.7,30.05,NNW,334,0.0,0.0,98,0.00,,SKC,0.00,35.00,VWS V14.01,2013-08-23 12:30:00,
2013-08-23 07:33:00,61.7,61.1,30.05,NNW,334,0.0,1.0,98,0.00,,SKC,0.00,37.00,VWS V14.01,2013-08-23 12:33:00,
2013-08-23 07:38:00,62.1,61.5,30.05,NNW,334,0.0,1.0,98,0.00,,SKC,0.00,39.00,VWS V14.01,2013-08-23 12:38:00,
2013-08-23 07:44:00,62.4,61.8,30.05,NNW,334,0.0,1.0,98,0.00,,SKC,0.00,39.00,VWS V14.01,2013-08-23 12:44:00,
2013-08-23 07:49:00,62.7,62.1,30.05,NNW,334,1.0,1.0,98,0.00,,SKC,0.00,40.00,VWS V14.01,2013-08-23 12:49:00,
2013-08-23 07:54:00,63.1,62.5,30.05,NNW,334,0.0,1.0,98,0.00,,SKC,0.00,42.00,VWS V14.01,2013-08-23 12:54:00,
2013-08-23 07:59:00,63.4,62.8,30.05,NNW,334,0.0,1.0,98,0.00,,SKC,0.00,42.00,VWS V14.01,2013-08-23 12:59:00,
2013-08-23 08:00:00,63.4,62.8,30.05,NNW,334,0.0,1.0,98,0.00,,SKC,0.00,42.00,VWS V14.01,2013-08-23 13:00:00,
2013-08-23 08:04:00,63.8,63.2,30.05,NNW,334,0.0,1.0,98,0.00,,SKC,0.00,44.00,VWS V14.01,2013-08-23 13:04:00,
2013-08-23 08:09:00,64.2,63.3,30.05,NNW,334,0.0,1.0,97,0.00,,SKC,0.00,44.00,VWS V14.01,2013-08-23 13:09:00,
2013-08-23 08:14:00,64.7,63.5,30.06,NNW,334,0.0,1.0,96,0.00,,SKC,0.00,46.00,VWS V14.01,2013-08-23 13:14:00,
2013-08-23 08:19:00,65.2,63.7,30.06,NNW,334,0.0,1.0,95,0.00,,SKC,0.00,47.00,VWS V14.01,2013-08-23 13:19:00,
2013-08-23 08:24:00,65.7,63.6,30.06,NNW,336,0.0,2.0,93,0.00,,SKC,0.00,47.00,VWS V14.01,2013-08-23 13:24:00,
2013-08-23 08:29:00,66.2,63.8,30.06,NNW,334,0.0,2.0,92,0.00,,SKC,0.00,49.00,VWS V14.01,2013-08-23 13:29:00,
2013-08-23 08:30:00,66.2,63.8,30.06,NNW,334,0.0,2.0,92,0.00,,SKC,0.00,49.00,VWS V14.01,2013-08-23 13:30:00,
2013-08-23 08:34:00,66.6,63.6,30.06,NNW,334,0.0,2.0,90,0.00,,SKC,0.00,51.00,VWS V14.01,2013-08-23 13:34:00,
2013-08-23 08:39:00,67.2,63.8,30.06,NNW,338,0.0,4.0,89,0.00,,SKC,0.00,62.00,VWS V14.01,2013-08-23 13:39:00,
2013-08-23 08:44:00,67.8,64.1,30.06,NNW,336,0.0,4.0,88,0.00,,SKC,0.00,54.00,VWS V14.01,2013-08-23 13:44:00,
2013-08-23 08:49:00,68.4,63.7,30.06,NNW,337,0.0,5.0,85,0.00,,SKC,0.00,81.00,VWS V14.01,2013-08-23 13:49:00,
2013-08-23 08:54:00,69.0,64.0,30.06,North,355,0.0,5.0,84,0.00,,SKC,0.00,113.00,VWS V14.01,2013-08-23 13:54:00,
2013-08-23 08:59:00,69.3,64.3,30.06,East,84,0.0,5.0,84,0.00,,SKC,0.00,76.00,VWS V14.01,2013-08-23 13:59:00,
2013-08-23 09:00:00,69.3,64.3,30.06,East,84,0.0,5.0,84,0.00,,SKC,0.00,76.00,VWS V14.01,2013-08-23 14:00:00,
2013-08-23 09:04:00,69.8,64.4,30.06,NW,313,0.0,2.0,83,0.00,,SKC,0.00,118.00,VWS V14.01,2013-08-23 14:04:00,
2013-08-23 09:09:00,70.4,64.7,30.06,South,173,1.0,4.0,82,0.00,,SKC,0.00,302.00,VWS V14.01,2013-08-23 14:09:00,
2013-08-23 09:14:00,71.0,64.9,30.06,North,355,3.0,5.0,81,0.00,,SKC,0.00,98.00,VWS V14.01,2013-08-23 14:14:00,
2013-08-23 09:19:00,71.5,65.0,30.06,WNW,299,0.0,5.0,80,0.00,,SKC,0.00,234.00,VWS V14.01,2013-08-23 14:19:00,
2013-08-23 09:24:00,71.9,65.0,30.06,ESE,110,0.0,7.0,79,0.00,,SKC,0.00,519.00,VWS V14.01,2013-08-23 14:24:00,
2013-08-23 09:29:00,72.2,63.8,30.07,NNW,343,2.0,5.0,75,0.00,,SKC,0.00,541.00,VWS V14.01,2013-08-23 14:29:00,
2013-08-23 09:30:00,72.2,63.8,30.07,NNW,328,4.0,7.0,75,0.00,,SKC,0.00,541.00,VWS V14.01,2013-08-23 14:30:00,
2013-08-23 09:34:00,72.8,64.0,30.07,NNE,33,2.0,5.0,74,0.00,,SKC,0.00,577.00,VWS V14.01,2013-08-23 14:34:00,
2013-08-23 09:39:00,73.2,64.4,30.07,North,360,0.0,5.0,74,0.00,,SKC,0.00,591.00,VWS V14.01,2013-08-23 14:39:00,
2013-08-23 09:44:00,73.8,65.8,30.07,WNW,294,0.0,5.0,76,0.00,,SKC,0.00,603.00,VWS V14.01,2013-08-23 14:44:00,
2013-08-23 09:49:00,74.2,64.2,30.07,SE,132,0.0,5.0,71,0.00,,SKC,0.00,619.00,VWS V14.01,2013-08-23 14:49:00,
2013-08-23 09:54:00,74.5,62.8,30.07,NW,317,1.0,5.0,67,0.00,,SKC,0.00,633.00,VWS V14.01,2013-08-23 14:54:00,
2013-08-23 09:59:00,74.7,62.6,30.07,NNW,333,1.0,1.0,66,0.00,,SKC,0.00,642.00,VWS V14.01,2013-08-23 14:59:00,
2013-08-23 10:00:00,74.7,62.6,30.07,NNW,333,0.0,7.0,66,0.00,,SKC,0.00,643.00,VWS V14.01,2013-08-23 15:00:00,
2013-08-23 10:04:00,74.8,62.3,30.07,North,355,1.0,6.0,65,0.00,,SKC,0.00,656.00,VWS V14.01,2013-08-23 15:04:00,
2013-08-23 10:09:00,75.3,63.6,30.07,NNE,32,0.0,6.0,67,0.00,,SKC,0.00,670.00,VWS V14.01,2013-08-23 15:09:00,
2013-08-23 10:14:00,75.7,62.7,30.08,North,9,1.0,6.0,64,0.00,,SKC,0.00,680.00,VWS V14.01,2013-08-23 15:14:00,
2013-08-23 10:19:00,75.8,62.8,30.07,North,360,1.0,6.0,64,0.00,,SKC,0.00,689.00,VWS V14.01,2013-08-23 15:19:00,
2013-08-23 10:24:00,76.1,63.5,30.07,North,355,0.0,6.0,65,0.00,,SKC,0.00,701.00,VWS V14.01,2013-08-23 15:24:00,
2013-08-23 10:29:00,76.3,62.3,30.07,NNE,24,2.0,2.0,62,0.00,,SKC,0.00,712.00,VWS V14.01,2013-08-23 15:29:00,
2013-08-23 10:30:00,76.3,62.3,30.07,NNE,32,0.0,6.0,62,0.00,,SKC,0.00,708.00,VWS V14.01,2013-08-23 15:30:00,
2013-08-23 10:34:00,76.5,60.6,30.07,ESE,123,0.0,5.0,58,0.00,,SKC,0.00,721.00,VWS V14.01,2013-08-23 15:34:00,
2013-08-23 10:39:00,76.8,60.9,30.08,NNW,337,2.0,5.0,58,0.00,,SKC,0.00,729.00,VWS V14.01,2013-08-23 15:39:00,
2013-08-23 10:44:00,77.3,62.3,30.07,South,170,0.0,5.0,60,0.00,,SKC,0.00,740.00,VWS V14.01,2013-08-23 15:44:00,
2013-08-23 10:49:00,77.9,61.5,30.08,WSW,250,1.0,5.0,57,0.00,,SKC,0.00,752.00,VWS V14.01,2013-08-23 15:49:00,
2013-08-23 10:55:00,78.0,59.0,30.07,WNW,294,1.0,5.0,52,0.00,,SKC,0.00,759.00,VWS V14.01,2013-08-23 15:55:00,
2013-08-23 11:00:00,77.9,60.5,30.07,WNW,286,0.0,2.0,55,0.00,,SKC,0.00,765.00,VWS V14.01,2013-08-23 16:00:00,
2013-08-23 11:05:00,78.0,60.0,30.07,West,274,0.0,5.0,54,0.00,,SKC,0.00,770.00,VWS V14.01,2013-08-23 16:05:00,
2013-08-23 11:10:00,78.3,61.3,30.07,East,84,1.0,5.0,56,0.00,,SKC,0.00,782.00,VWS V14.01,2013-08-23 16:10:00,
2013-08-23 11:15:00,78.2,58.1,30.07,West,263,1.0,5.0,50,0.00,,SKC,0.00,786.00,VWS V14.01,2013-08-23 16:15:00,
2013-08-23 11:20:00,78.2,56.3,30.07,North,351,2.0,7.0,47,0.00,,SKC,0.00,791.00,VWS V14.01,2013-08-23 16:20:00,
2013-08-23 11:25:00,78.0,56.7,30.07,SSE,150,2.0,7.0,48,0.00,,SKC,0.00,798.00,VWS V14.01,2013-08-23 16:25:00,
2013-08-23 11:30:00,78.2,58.6,30.07,East,100,2.0,2.0,51,0.00,,SKC,0.00,803.00,VWS V14.01,2013-08-23 16:30:00,
2013-08-23 11:35:00,78.5,56.6,30.07,NE,52,0.0,7.0,47,0.00,,SKC,0.00,816.00,VWS V14.01,2013-08-23 16:35:00,
2013-08-23 11:40:00,78.9,57.0,30.07,SE,140,1.0,7.0,47,0.00,,SKC,0.00,816.00,VWS V14.01,2013-08-23 16:40:00,
2013-08-23 11:45:00,79.0,57.7,30.07,West,275,0.0,7.0,48,0.00,,SKC,0.00,819.00,VWS V14.01,2013-08-23 16:45:00,
2013-08-23 11:50:00,78.9,57.0,30.07,WNW,303,0.0,7.0,47,0.00,,SKC,0.00,823.00,VWS V14.01,2013-08-23 16:50:00,
2013-08-23 11:55:00,78.8,55.7,30.07,WNW,295,0.0,7.0,45,0.00,,SKC,0.00,830.00,VWS V14.01,2013-08-23 16:55:00,
2013-08-23 12:00:00,78.8,56.9,30.07,NW,315,1.0,1.0,47,0.00,,SKC,0.00,831.00,VWS V14.01,2013-08-23 17:00:00,
2013-08-23 12:05:00,79.1,57.8,30.07,SW,225,1.0,6.0,48,0.00,,SKC,0.00,831.00,VWS V14.01,2013-08-23 17:05:00,
2013-08-23 12:10:00,79.2,56.7,30.07,NW,315,1.0,6.0,46,0.00,,SKC,0.00,840.00,VWS V14.01,2013-08-23 17:10:00,
2013-08-23 12:15:00,79.3,56.8,30.07,East,101,1.0,6.0,46,0.00,,SKC,0.00,835.00,VWS V14.01,2013-08-23 17:15:00,
2013-08-23 12:20:00,79.5,56.3,30.07,SE,131,0.0,6.0,45,0.00,,SKC,0.00,838.00,VWS V14.01,2013-08-23 17:20:00,
2013-08-23 12:25:00,79.7,57.1,30.07,North,11,2.0,6.0,46,0.00,,SKC,0.00,846.00,VWS V14.01,2013-08-23 17:25:00,
2013-08-23 12:30:00,80.0,58.6,30.07,WSW,257,1.0,7.0,48,0.00,,SKC,0.00,853.00,VWS V14.01,2013-08-23 17:30:00,
2013-08-23 12:35:00,80.1,55.6,30.07,NNW,331,2.0,7.0,43,0.00,,SKC,0.00,851.00,VWS V14.01,2013-08-23 17:35:00,
2013-08-23 12:40:00,80.0,58.6,30.07,East,83,1.0,7.0,48,0.00,,SKC,0.00,851.00,VWS V14.01,2013-08-23 17:40:00,
2013-08-23 12:45:00,79.9,56.1,30.07,SW,219,2.0,7.0,44,0.00,,SKC,0.00,851.00,VWS V14.01,2013-08-23 17:45:00,
2013-08-23 12:50:00,79.9,57.9,30.07,East,101,1.0,7.0,47,0.00,,SKC,0.00,853.00,VWS V14.01,2013-08-23 17:50:00,
2013-08-23 12:55:00,80.0,58.0,30.07,SE,144,0.0,7.0,47,0.00,,SKC,0.00,856.00,VWS V14.01,2013-08-23 17:55:00,
2013-08-23 13:00:00,80.2,57.0,30.06,SW,220,2.0,4.0,45,0.00,,SKC,0.00,853.00,VWS V14.01,2013-08-23 18:00:00,
2013-08-23 13:05:00,80.3,58.2,30.06,SE,132,1.0,4.0,47,0.00,,SKC,0.00,844.00,VWS V14.01,2013-08-23 18:05:00,
2013-08-23 13:10:00,80.6,57.9,30.06,East,90,3.0,5.0,46,0.00,,SKC,0.00,846.00,VWS V14.01,2013-08-23 18:10:00,
2013-08-23 13:15:00,80.8,55.6,30.06,WNW,292,0.0,5.0,42,0.00,,SKC,0.00,840.00,VWS V14.01,2013-08-23 18:15:00,
2013-08-23 13:20:00,80.9,53.7,30.06,NNW,334,1.0,5.0,39,0.00,,SKC,0.00,837.00,VWS V14.01,2013-08-23 18:20:00,
2013-08-23 13:25:00,80.8,54.2,30.06,WSW,240,3.0,5.0,40,0.00,,SKC,0.00,833.00,VWS V14.01,2013-08-23 18:25:00,
2013-08-23 13:30:00,80.4,53.9,30.06,WNW,284,1.0,4.0,40,0.00,,SKC,0.00,828.00,VWS V14.01,2013-08-23 18:30:00,
2013-08-23 13:35:00,80.3,55.1,30.06,West,281,0.0,5.0,42,0.00,,SKC,0.00,828.00,VWS V14.01,2013-08-23 18:35:00,
2013-08-23 13:40:00,80.2,56.3,30.06,NE,49,0.0,6.0,44,0.00,,SKC,0.00,823.00,VWS V14.01,2013-08-23 18:40:00,
2013-08-23 13:45:00,80.5,53.3,30.06,ESE,114,1.0,6.0,39,0.00,,SKC,0.00,819.00,VWS V14.01,2013-08-23 18:45:00,
2013-08-23 13:50:00,80.8,56.9,30.06,ESE,107,1.0,6.0,44,0.00,,SKC,0.00,819.00,VWS V14.01,2013-08-23 18:50:00,
2013-08-23 13:55:00,81.1,53.8,30.06,North,11,1.0,6.0,39,0.00,,SKC,0.00,812.00,VWS V14.01,2013-08-23 18:55:00,
2013-08-23 14:00:00,81.0,55.1,30.05,North,9,2.0,3.0,41,0.00,,SKC,0.00,810.00,VWS V14.01,2013-08-23 19:00:00,
2013-08-23 14:05:00,80.8,52.8,30.06,SSE,163,2.0,6.0,38,0.00,,SKC,0.00,807.00,VWS V14.01,2013-08-23 19:05:00,
2013-08-23 14:11:00,80.6,51.2,30.05,West,259,0.0,6.0,36,0.00,,SKC,0.00,798.00,VWS V14.01,2013-08-23 19:11:00,
2013-08-23 14:16:00,80.7,53.5,30.05,NE,52,4.0,6.0,39,0.00,,SKC,0.00,788.00,VWS V14.01,2013-08-23 19:16:00,
2013-08-23 14:21:00,81.1,56.5,30.05,West,277,0.0,6.0,43,0.00,,SKC,0.00,784.00,VWS V14.01,2013-08-23 19:21:00,
2013-08-23 14:26:00,81.2,51.7,30.05,WNW,287,1.0,6.0,36,0.00,,SKC,0.00,772.00,VWS V14.01,2013-08-23 19:26:00,
2013-08-23 14:30:00,81.1,52.4,30.05,West,269,1.0,6.0,37,0.00,,SKC,0.00,772.00,VWS V14.01,2013-08-23 19:30:00,
2013-08-23 14:31:00,81.0,52.3,30.05,NW,311,1.0,4.0,37,0.00,,SKC,0.00,763.00,VWS V14.01,2013-08-23 19:31:00,
2013-08-23 14:36:00,80.9,52.9,30.05,WNW,288,0.0,4.0,38,0.00,,SKC,0.00,749.00,VWS V14.01,2013-08-23 19:36:00,
2013-08-23 14:41:00,81.0,52.3,30.05,West,273,2.0,4.0,37,0.00,,SKC,0.00,747.00,VWS V14.01,2013-08-23 19:41:00,
2013-08-23 14:46:00,81.0,53.7,30.05,ESE,105,1.0,4.0,39,0.00,,SKC,0.00,733.00,VWS V14.01,2013-08-23 19:46:00,
2013-08-23 14:51:00,80.9,52.9,30.04,WSW,249,0.0,4.0,38,0.00,,SKC,0.00,726.00,VWS V14.01,2013-08-23 19:51:00,
2013-08-23 14:56:00,80.9,52.9,30.05,NW,322,0.0,6.0,38,0.00,,SKC,0.00,717.00,VWS V14.01,2013-08-23 19:56:00,
2013-08-23 15:00:00,80.9,53.7,30.05,WNW,290,1.0,6.0,39,0.00,,SKC,0.00,714.00,VWS V14.01,2013-08-23 20:00:00,
2013-08-23 15:01:00,81.0,52.3,30.04,SSW,204,2.0,3.0,37,0.00,,SKC,0.00,708.00,VWS V14.01,2013-08-23 20:01:00,
2013-08-23 15:06:00,80.9,51.5,30.04,WNW,295,0.0,4.0,36,0.00,,SKC,0.00,700.00,VWS V14.01,2013-08-23 20:06:00,
2013-08-23 15:11:00,80.9,51.5,30.04,NE,46,1.0,4.0,36,0.00,,SKC,0.00,687.00,VWS V14.01,2013-08-23 20:11:00,
2013-08-23 15:16:00,80.9,54.3,30.04,NW,314,1.0,4.0,40,0.00,,SKC,0.00,679.00,VWS V14.01,2013-08-23 20:16:00,
2013-08-23 15:21:00,81.0,50.8,30.04,South,178,2.0,4.0,35,0.00,,SKC,0.00,673.00,VWS V14.01,2013-08-23 20:21:00,
2013-08-23 15:26:00,80.8,52.1,30.04,WSW,246,0.0,5.0,37,0.00,,SKC,0.00,656.00,VWS V14.01,2013-08-23 20:26:00,
2013-08-23 15:30:00,80.7,53.5,30.04,SE,135,1.0,5.0,39,0.00,,SKC,0.00,650.00,VWS V14.01,2013-08-23 20:30:00,
2013-08-23 15:31:00,80.6,53.4,30.04,SE,130,0.0,1.0,39,0.00,,SKC,0.00,643.00,VWS V14.01,2013-08-23 20:31:00,
2013-08-23 15:36:00,80.5,52.6,30.04,WNW,296,2.0,6.0,38,0.00,,SKC,0.00,635.00,VWS V14.01,2013-08-23 20:36:00,
2013-08-23 15:41:00,80.2,51.6,30.04,NNE,27,2.0,7.0,37,0.00,,SKC,0.00,631.00,VWS V14.01,2013-08-23 20:41:00,
2013-08-23 15:46:00,79.9,52.0,30.04,NNW,344,1.0,7.0,38,0.00,,SKC,0.00,621.00,VWS V14.01,2013-08-23 20:46:00,
2013-08-23 15:51:00,80.1,52.9,30.04,NNW,331,0.0,7.0,39,0.00,,SKC,0.00,598.00,VWS V14.01,2013-08-23 20:51:00,
2013-08-23 15:56:00,80.1,52.9,30.04,ENE,69,5.0,7.0,39,0.00,,SKC,0.00,587.00,VWS V14.01,2013-08-23 20:56:00,
2013-08-23 16:00:00,80.2,52.3,30.04,NNE,22,1.0,7.0,38,0.00,,SKC,0.00,584.00,VWS V14.01,2013-08-23 21:00:00,
2013-08-23 16:01:00,80.1,51.5,30.04,WNW,297,0.0,2.0,37,0.00,,SKC,0.00,582.00,VWS V14.01,2013-08-23 21:01:00,
2013-08-23 16:06:00,80.0,51.4,30.04,NE,48,2.0,4.0,37,0.00,,SKC,0.00,568.00,VWS V14.01,2013-08-23 21:06:00,
2013-08-23 16:11:00,79.6,51.8,30.04,SW,214,2.0,5.0,38,0.00,,SKC,0.00,480.00,VWS V14.01,2013-08-23 21:11:00,
2013-08-23 16:16:00,79.3,51.5,30.04,SSW,211,0.0,5.0,38,0.00,,SKC,0.00,213.00,VWS V14.01,2013-08-23 21:16:00,
2013-08-23 16:21:00,79.0,52.0,30.04,WNW,289,0.0,6.0,39,0.00,,SKC,0.00,306.00,VWS V14.01,2013-08-23 21:21:00,
2013-08-23 16:26:00,78.9,53.2,30.04,WNW,290,1.0,6.0,41,0.00,,SKC,0.00,269.00,VWS V14.01,2013-08-23 21:26:00,
2013-08-23 16:30:00,78.8,51.1,30.04,NNW,333,0.0,6.0,38,0.00,,SKC,0.00,425.00,VWS V14.01,2013-08-23 21:30:00,
2013-08-23 16:31:00,78.8,52.5,30.04,NW,308,1.0,2.0,40,0.00,,SKC,0.00,216.00,VWS V14.01,2013-08-23 21:31:00,
2013-08-23 16:36:00,78.5,52.9,30.03,West,259,3.0,5.0,41,0.00,,SKC,0.00,127.00,VWS V14.01,2013-08-23 21:36:00,
2013-08-23 16:41:00,78.5,50.8,30.03,WNW,291,0.0,5.0,38,0.00,,SKC,0.00,373.00,VWS V14.01,2013-08-23 21:41:00,
2013-08-23 16:46:00,78.2,50.5,30.03,West,273,1.0,5.0,38,0.00,,SKC,0.00,192.00,VWS V14.01,2013-08-23 21:46:00,
2013-08-23 16:51:00,78.0,51.8,30.03,SSE,151,0.0,5.0,40,0.00,,SKC,0.00,248.00,VWS V14.01,2013-08-23 21:51:00,
2013-08-23 16:56:00,77.8,52.2,30.03,SE,129,1.0,5.0,41,0.00,,SKC,0.00,60.00,VWS V14.01,2013-08-23 21:56:00,
2013-08-23 17:00:00,77.7,51.5,30.03,SE,126,0.0,5.0,40,0.00,,SKC,0.00,69.00,VWS V14.01,2013-08-23 22:00:00,
2013-08-23 17:01:00,77.7,51.5,30.03,West,263,4.0,4.0,40,0.00,,SKC,0.00,56.00,VWS V14.01,2013-08-23 22:01:00,
2013-08-23 17:06:00,77.5,52.0,30.04,NNW,328,0.0,4.0,41,0.00,,SKC,0.00,51.00,VWS V14.01,2013-08-23 22:06:00,
2013-08-23 17:11:00,77.6,52.7,30.03,NW,324,1.0,4.0,42,0.00,,SKC,0.00,130.00,VWS V14.01,2013-08-23 22:11:00,
2013-08-23 17:16:00,77.6,53.4,30.04,SSE,165,0.0,4.0,43,0.00,,SKC,0.00,332.00,VWS V14.01,2013-08-23 22:16:00,
2013-08-23 17:22:00,77.5,54.5,30.04,NNW,342,0.0,4.0,45,0.00,,SKC,0.00,206.00,VWS V14.01,2013-08-23 22:22:00,
2013-08-23 17:27:00,77.4,51.2,30.04,WNW,290,0.0,6.0,40,0.00,,SKC,0.00,323.00,VWS V14.01,2013-08-23 22:27:00,
2013-08-23 17:30:00,77.3,53.1,30.04,WNW,290,0.0,6.0,43,0.00,,SKC,0.00,97.00,VWS V14.01,2013-08-23 22:30:00,
2013-08-23 17:32:00,77.3,52.5,30.04,WNW,290,1.0,2.0,42,0.00,,SKC,0.00,127.00,VWS V14.01,2013-08-23 22:32:00,
2013-08-23 17:37:00,77.1,52.3,30.04,WNW,290,0.0,3.0,42,0.00,,SKC,0.00,53.00,VWS V14.01,2013-08-23 22:37:00,
2013-08-23 17:42:00,77.0,53.4,30.04,WNW,290,0.0,3.0,44,0.00,,SKC,0.00,40.00,VWS V14.01,2013-08-23 22:42:00,
2013-08-23 17:47:00,76.7,53.2,30.04,WNW,290,0.0,3.0,44,0.00,,SKC,0.00,37.00,VWS V14.01,2013-08-23 22:47:00,
2013-08-23 17:52:00,76.5,53.6,30.03,WNW,297,1.0,3.0,45,0.00,,SKC,0.00,35.00,VWS V14.01,2013-08-23 22:52:00,
2013-08-23 17:57:00,76.3,53.4,30.03,WNW,297,0.0,3.0,45,0.00,,SKC,0.00,33.00,VWS V14.01,2013-08-23 22:57:00,
2013-08-23 18:00:00,76.2,53.3,30.03,WNW,297,1.0,3.0,45,0.00,,SKC,0.00,35.00,VWS V14.01,2013-08-23 23:00:00,
2013-08-23 18:02:00,76.1,53.2,30.03,NE,52,2.0,4.0,45,0.00,,SKC,0.00,32.00,VWS V14.01,2013-08-23 23:02:00,
2013-08-23 18:07:00,75.8,53.0,30.03,NNW,340,1.0,4.0,45,0.00,,SKC,0.00,30.00,VWS V14.01,2013-08-23 23:07:00,
2013-08-23 18:12:00,75.4,53.2,30.03,West,272,0.0,4.0,46,0.00,,SKC,0.00,30.00,VWS V14.01,2013-08-23 23:12:00,
2013-08-23 18:17:00,75.1,52.9,30.03,SSW,196,3.0,5.0,46,0.00,,SKC,0.00,28.00,VWS V14.01,2013-08-23 23:17:00,
2013-08-23 18:22:00,74.9,53.3,30.03,NW,322,0.0,5.0,47,0.00,,SKC,0.00,26.00,VWS V14.01,2013-08-23 23:22:00,
2013-08-23 18:27:00,74.8,53.8,30.04,NW,323,0.0,5.0,48,0.00,,SKC,0.00,26.00,VWS V14.01,2013-08-23 23:27:00,
2013-08-23 18:30:00,74.7,53.7,30.04,NW,322,0.0,5.0,48,0.00,,SKC,0.00,25.00,VWS V14.01,2013-08-23 23:30:00,
2013-08-23 18:32:00,74.5,54.1,30.04,North,355,0.0,2.0,49,0.00,,SKC,0.00,25.00,VWS V14.01,2013-08-23 23:32:00,
2013-08-23 18:37:00,74.3,55.0,30.03,North,355,0.0,2.0,51,0.00,,SKC,0.00,25.00,VWS V14.01,2013-08-23 23:37:00,
2013-08-23 18:42:00,74.1,54.8,30.03,North,355,1.0,2.0,51,0.00,,SKC,0.00,23.00,VWS V14.01,2013-08-23 23:42:00,
2013-08-23 18:47:00,73.9,55.2,30.03,North,355,0.0,2.0,52,0.00,,SKC,0.00,21.00,VWS V14.01,2013-08-23 23:47:00,
2013-08-23 18:52:00,73.7,55.5,30.03,North,360,0.0,2.0,53,0.00,,SKC,0.00,21.00,VWS V14.01,2013-08-23 23:52:00,
2013-08-23 18:57:00,73.4,55.8,30.03,North,360,0.0,2.0,54,0.00,,SKC,0.00,19.00,VWS V14.01,2013-08-23 23:57:00,
2013-08-23 19:00:00,73.3,56.2,30.03,NNW,344,1.0,2.0,55,0.00,,SKC,0.00,18.00,VWS V14.01,2013-08-24 00:00:00,
2013-08-23 19:02:00,73.0,55.9,30.03,NNW,345,0.0,1.0,55,0.00,,SKC,0.00,18.00,VWS V14.01,2013-08-24 00:02:00,
2013-08-23 19:07:00,72.8,56.2,30.03,NNW,345,0.0,1.0,56,0.00,,SKC,0.00,14.00,VWS V14.01,2013-08-24 00:07:00,
2013-08-23 19:12:00,72.3,56.2,30.03,NNW,345,0.0,1.0,57,0.00,,SKC,0.00,12.00,VWS V14.01,2013-08-24 00:12:00,
2013-08-23 19:17:00,72.0,56.0,30.03,SW,217,0.0,2.0,57,0.00,,SKC,0.00,11.00,VWS V14.01,2013-08-24 00:17:00,
2013-08-23 19:22:00,71.7,56.2,30.03,SW,217,0.0,2.0,58,0.00,,SKC,0.00,9.00,VWS V14.01,2013-08-24 00:22:00,
2013-08-23 19:27:00,71.2,56.2,30.03,SW,217,0.0,2.0,59,0.00,,SKC,0.00,7.00,VWS V14.01,2013-08-24 00:27:00,
2013-08-23 19:30:00,71.2,56.2,30.03,SW,217,0.0,2.0,59,0.00,,SKC,0.00,7.00,VWS V14.01,2013-08-24 00:30:00,
2013-08-23 19:32:00,70.9,55.9,30.03,SW,217,0.0,0.0,59,0.00,,SKC,0.00,5.00,VWS V14.01,2013-08-24 00:32:00,
2013-08-23 19:37:00,70.5,56.4,30.04,SW,217,0.0,0.0,61,0.00,,SKC,0.00,0.00,VWS V14.01,2013-08-24 00:37:00,
2013-08-23 19:42:00,70.1,56.0,30.04,SW,217,0.0,1.0,61,0.00,,SKC,0.00,0.00,VWS V14.01,2013-08-24 00:42:00,
2013-08-23 19:47:00,69.8,56.2,30.04,SW,220,0.0,2.0,62,0.00,,SKC,0.00,0.00,VWS V14.01,2013-08-24 00:47:00,
2013-08-23 19:53:00,69.5,56.4,30.04,SW,220,0.0,2.0,63,0.00,,SKC,0.00,0.00,VWS V14.01,2013-08-24 00:53:00,
2013-08-23 19:58:00,69.1,56.4,30.04,SW,220,0.0,2.0,64,0.00,,SKC,0.00,0.00,VWS V14.01,2013-08-24 00:58:00,
2013-08-23 20:00:00,69.0,56.8,30.04,SW,220,0.0,2.0,65,0.00,,SKC,0.00,0.00,VWS V14.01,2013-08-24 01:00:00,
2013-08-23 20:03:00,68.7,56.9,30.04,SW,220,0.0,0.0,66,0.00,,SKC,0.00,0.00,VWS V14.01,2013-08-24 01:03:00,
2013-08-23 20:08:00,68.2,56.4,30.04,SW,220,0.0,0.0,66,0.00,,SKC,0.00,0.00,VWS V14.01,2013-08-24 01:08:00,
2013-08-23 20:13:00,67.6,56.3,30.04,SW,220,0.0,0.0,67,0.00,,SKC,0.00,0.00,VWS V14.01,2013-08-24 01:13:00,
2013-08-23 20:18:00,67.1,56.6,30.04,SW,220,0.0,0.0,69,0.00,,SKC,0.00,0.00,VWS V14.01,2013-08-24 01:18:00,
2013-08-23 20:23:00,66.7,56.6,30.04,SW,220,0.0,0.0,70,0.00,,SKC,0.00,0.00,VWS V14.01,2013-08-24 01:23:00,
2013-08-23 20:28:00,66.2,56.5,30.05,SW,220,0.0,0.0,71,0.00,,SKC,0.00,0.00,VWS V14.01,2013-08-24 01:28:00,
2013-08-23 20:30:00,66.1,56.8,30.05,SW,220,0.0,0.0,72,0.00,,SKC,0.00,0.00,VWS V14.01,2013-08-24 01:30:00,
2013-08-23 20:33:00,65.8,56.9,30.05,SW,220,0.0,0.0,73,0.00,,SKC,0.00,0.00,VWS V14.01,2013-08-24 01:33:00,
2013-08-23 20:38:00,65.4,56.9,30.05,SW,220,0.0,0.0,74,0.00,,SKC,0.00,0.00,VWS V14.01,2013-08-24 01:38:00,
2013-08-23 20:43:00,64.9,56.4,30.05,SW,220,0.0,0.0,74,0.00,,SKC,0.00,0.00,VWS V14.01,2013-08-24 01:43:00,
2013-08-23 20:48:00,64.4,56.7,30.06,SW,220,0.0,0.0,76,0.00,,SKC,0.00,0.00,VWS V14.01,2013-08-24 01:48:00,
2013-08-23 20:53:00,63.9,56.6,30.06,SW,220,0.0,0.0,77,0.00,,SKC,0.00,0.00,VWS V14.01,2013-08-24 01:53:00,
2013-08-23 20:58:00,63.6,56.6,30.06,SW,220,0.0,0.0,78,0.00,,SKC,0.00,0.00,VWS V14.01,2013-08-24 01:58:00,
2013-08-23 21:00:00,63.5,56.5,30.06,SW,220,0.0,0.0,78,0.00,,SKC,0.00,0.00,VWS V14.01,2013-08-24 02:00:00,
2013-08-23 21:03:00,63.2,56.6,30.06,SW,220,0.0,0.0,79,0.00,,SKC,0.00,0.00,VWS V14.01,2013-08-24 02:03:00,
2013-08-23 21:08:00,62.8,56.5,30.06,SW,220,0.0,0.0,80,0.00,,SKC,0.00,0.00,VWS V14.01,2013-08-24 02:08:00,
2013-08-23 21:13:00,62.4,56.2,30.06,SW,220,0.0,0.0,80,0.00,,SKC,0.00,0.00,VWS V14.01,2013-08-24 02:13:00,
2013-08-23 21:18:00,62.0,56.1,30.07,SW,220,0.0,0.0,81,0.00,,SKC,0.00,0.00,VWS V14.01,2013-08-24 02:18:00,
2013-08-23 21:23:00,61.6,56.4,30.07,SW,220,0.0,0.0,83,0.00,,SKC,0.00,0.00,VWS V14.01,2013-08-24 02:23:00,
2013-08-23 21:28:00,61.3,56.4,30.07,SW,220,0.0,0.0,84,0.00,,SKC,0.00,0.00,VWS V14.01,2013-08-24 02:28:00,
2013-08-23 21:30:00,61.3,56.4,30.07,SW,220,0.0,0.0,84,0.00,,SKC,0.00,0.00,VWS V14.01,2013-08-24 02:30:00,
2013-08-23 21:33:00,61.1,56.2,30.07,SW,220,0.0,0.0,84,0.00,,SKC,0.00,0.00,VWS V14.01,2013-08-24 02:33:00,
2013-08-23 21:38:00,60.7,56.2,30.07,SW,220,0.0,0.0,85,0.00,,SKC,0.00,0.00,VWS V14.01,2013-08-24 02:38:00,
2013-08-23 21:43:00,60.4,56.2,30.07,SW,220,0.0,0.0,86,0.00,,SKC,0.00,0.00,VWS V14.01,2013-08-24 02:43:00,
2013-08-23 21:48:00,60.2,56.0,30.07,SW,220,0.0,0.0,86,0.00,,SKC,0.00,0.00,VWS V14.01,2013-08-24 02:48:00,
2013-08-23 21:53:00,59.9,56.0,30.07,SW,220,0.0,0.0,87,0.00,,SKC,0.00,0.00,VWS V14.01,2013-08-24 02:53:00,
2013-08-23 21:58:00,59.7,56.2,30.07,SW,220,0.0,0.0,88,0.00,,SKC,0.00,0.00,VWS V14.01,2013-08-24 02:58:00,
2013-08-23 22:00:00,59.7,56.2,30.07,SW,220,0.0,0.0,88,0.00,,SKC,0.00,0.00,VWS V14.01,2013-08-24 03:00:00,
2013-08-23 22:03:00,59.6,56.4,30.07,SW,220,0.0,0.0,89,0.00,,SKC,0.00,0.00,VWS V14.01,2013-08-24 03:03:00,
2013-08-23 22:08:00,59.6,56.4,30.07,SW,220,0.0,0.0,89,0.00,,SKC,0.00,0.00,VWS V14.01,2013-08-24 03:08:00,
2013-08-23 22:13:00,59.4,56.2,30.07,SW,220,0.0,0.0,89,0.00,,SKC,0.00,0.00,VWS V14.01,2013-08-24 03:13:00,
2013-08-23 22:19:00,59.3,56.1,30.07,SW,220,0.0,0.0,89,0.00,,SKC,0.00,0.00,VWS V14.01,2013-08-24 03:19:00,
2013-08-23 22:24:00,59.2,56.3,30.07,SW,220,0.0,0.0,90,0.00,,SKC,0.00,0.00,VWS V14.01,2013-08-24 03:24:00,
2013-08-23 22:29:00,59.0,56.1,30.07,SW,220,0.0,0.0,90,0.00,,SKC,0.00,0.00,VWS V14.01,2013-08-24 03:29:00,
2013-08-23 22:30:00,59.0,56.1,30.07,SW,220,0.0,0.0,90,0.00,,SKC,0.00,0.00,VWS V14.01,2013-08-24 03:30:00,
2013-08-23 22:34:00,58.9,56.0,30.07,SW,220,0.0,0.0,90,0.00,,SKC,0.00,0.00,VWS V14.01,2013-08-24 03:34:00,
2013-08-23 22:39:00,58.8,56.2,30.07,SW,220,0.0,0.0,91,0.00,,SKC,0.00,0.00,VWS V14.01,2013-08-24 03:39:00,
2013-08-23 22:44:00,58.7,56.1,30.07,SW,220,0.0,0.0,91,0.00,,SKC,0.00,0.00,VWS V14.01,2013-08-24 03:44:00,
2013-08-23 22:49:00,58.6,56.0,30.07,SW,220,0.0,0.0,91,0.00,,SKC,0.00,0.00,VWS V14.01,2013-08-24 03:49:00,
2013-08-23 22:54:00,58.5,56.2,30.07,SW,220,0.0,0.0,92,0.00,,SKC,0.00,0.00,VWS V14.01,2013-08-24 03:54:00,
2013-08-23 22:59:00,58.5,56.2,30.07,SW,220,0.0,0.0,92,0.00,,SKC,0.00,0.00,VWS V14.01,2013-08-24 03:59:00,
2013-08-23 23:00:00,58.5,56.2,30.07,SW,220,0.0,0.0,92,0.00,,SKC,0.00,0.00,VWS V14.01,2013-08-24 04:00:00,
2013-08-23 23:01:00,58.5,56.2,30.07,SW,220,0.0,0.0,92,0.00,,SKC,0.00,0.00,VWS V14.01,2013-08-24 04:01:00,
2013-08-23 23:03:00,58.4,56.1,30.07,SW,220,0.0,0.0,92,0.00,,SKC,0.00,0.00,VWS V14.01,2013-08-24 04:03:00,
2013-08-23 23:04:00,58.4,56.1,30.07,SW,220,0.0,0.0,92,0.00,,SKC,0.00,0.00,VWS V14.01,2013-08-24 04:04:00,
2013-08-23 23:08:00,58.4,56.1,30.07,SW,220,0.0,0.0,92,0.00,,SKC,0.00,0.00,VWS V14.01,2013-08-24 04:08:00,
2013-08-23 23:10:00,58.4,56.1,30.07,SW,220,0.0,0.0,92,0.00,,SKC,0.00,0.00,VWS V14.01,2013-08-24 04:10:00,
2013-08-23 23:15:00,58.3,56.0,30.07,SW,220,0.0,0.0,92,0.00,,SKC,0.00,0.00,VWS V14.01,2013-08-24 04:15:00,
2013-08-23 23:20:00,58.1,55.8,30.07,SW,220,0.0,0.0,92,0.00,,SKC,0.00,0.00,VWS V14.01,2013-08-24 04:20:00,
2013-08-23 23:25:00,57.9,55.6,30.08,SW,220,0.0,0.0,92,0.00,,SKC,0.00,0.00,VWS V14.01,2013-08-24 04:25:00,
2013-08-23 23:30:00,57.8,55.8,30.07,SW,220,0.0,0.0,93,0.00,,SKC,0.00,0.00,VWS V14.01,2013-08-24 04:30:00,
2013-08-23 23:35:00,57.6,55.6,30.08,SW,220,0.0,0.0,93,0.00,,SKC,0.00,0.00,VWS V14.01,2013-08-24 04:35:00,
2013-08-23 23:40:00,57.5,55.5,30.07,SW,220,0.0,0.0,93,0.00,,SKC,0.00,0.00,VWS V14.01,2013-08-24 04:40:00,
2013-08-23 23:45:00,57.4,55.4,30.07,SW,220,0.0,0.0,93,0.00,,SKC,0.00,0.00,VWS V14.01,2013-08-24 04:45:00,
2013-08-23 23:50:00,57.3,55.3,30.07,SW,220,0.0,0.0,93,0.00,,SKC,0.00,0.00,VWS V14.01,2013-08-24 04:50:00,
2013-08-23 23:55:00,57.2,55.5,30.07,SW,220,0.0,0.0,94,0.00,,SKC,0.00,0.00,VWS V14.01,2013-08-24 04:55:00,